RH
86 98 92 91 72 73 100 90 86 87 100 96 97 99 100 100 99 99 98 100 97 95 93 89 86 74 54 45 40 36 33 32 31 34 31 27 24 20 22 29 36 34 37 39 32 31 35
100 97 95 95 73 74 96 90 81 81 75 87 98 79 100 100 100 100 99 100 96 96 99 100 96 82 54 47 46 40 36 35 34 32 30 35 42 37 36 34 35 30 26 23 24 24 32
85 99 100 100 100 100 99 100 94 86 66 60 79 85 64 100 100 100 100 99 98 98 100 100 90 76 63 62 56 43 40 38 34 32 27 30 39 31 26 23 18 14 12 11 10 11 20
98 72 100 99 95 77 88 93 96 67 75 100 100 84 57 80 99 98 100 100 99 100 100 96 84 81 82 61 48 45 41 36 32 44 40 33 26 16 15 16 13 14 10 11 16 12 13
33 32 52 62 74 95 97 87 91 100 100 100 80 60 83 70 89 100 100 98 99 100 95 98 96 74 59 52 48 43 37 43 41 28 22 18 18 19 21 24 21 16 12 17 19 25 20
24 40 54 56 74 85 95 88 100 100 94 90 53 92 100 100 96 87 99 100 100 100 98 83 66 59 54 49 44 45 40 30 30 28 25 21 24 27 28 23 17 22 28 24 18 41 23
13 33 39 49 50 64 72 63 85 73 78 70 54 99 100 100 100 100 100 100 99 86 65 60 57 54 48 43 46 31 31 29 30 37 30 35 44 39 19 19 23 21 28 36 32 38 28
13 19 25 36 39 47 51 49 42 44 48 34 39 100 100 100 100 100 87 63 73 69 51 56 50 46 55 39 29 30 37 39 37 33 40 29 17 13 17 24 27 31 28 34 45 60 80
12 13 24 33 51 52 46 40 48 53 90 68 75 100 98 97 69 93 46 35 50 47 56 56 71 64 36 28 32 39 25 24 24 28 21 18 22 26 28 30 34 37 40 41 44 80 70
36 11 14 21 24 33 46 32 30 42 50 63 60 100 55 49 47 35 51 31 39 54 60 65 44 41 29 34 36 26 27 28 32 24 24 29 37 45 55 69 79 91 97 96 57 37 54
38 42 12 13 18 19 25 26 30 44 70 50 40 36 27 44 43 26 19 38 56 64 64 67 50 44 42 38 33 49 37 36 37 40 46 53 66 76 81 87 93 100 98 100 100 97 93
12 27 50 53 21 23 35 34 46 62 41 34 34 33 29 30 24 21 30 62 91 69 55 59 62 48 39 30 35 37 40 49 56 55 54 67 79 78 93 100 100 100 100 95 98 91 100
5 7 14 36 68 64 22 18 37 64 52 37 36 34 38 32 34 60 78 86 55 50 62 58 52 50 45 30 30 26 33 41 44 45 52 56 62 72 92 93 97 90 100 89 99 100 99
4 4 5 7 10 18 42 53 34 24 20 43 87 85 72 60 57 49 45 46 44 46 54 65 61 53 48 32 26 24 26 31 37 34 39 64 80 68 92 100 98 98 98 100 100 100 100
4 4 5 5 6 6 7 9 23 45 36 46 33 30 28 34 39 37 37 44 52 60 65 63 64 63 48 35 38 27 30 27 48 57 66 69 76 85 99 100 100 99 100 98 98 95 100
4 4 4 5 6 6 6 6 8 10 13 17 20 25 26 25 23 24 26 25 43 50 63 72 65 54 47 41 38 33 34 44 63 56 68 88 100 100 100 99 100 100 96 99 96 92 88
12 4 4 5 6 7 6 6 6 7 8 12 15 20 23 24 27 27 24 20 32 47 50 50 58 51 39 33 31 35 37 60 61 55 81 88 95 90 100 100 97 100 95 100 99 85 88
18 8 3 4 5 6 8 8 7 7 7 7 8 10 14 15 24 27 22 20 21 28 29 33 46 52 45 38 32 31 52 62 66 67 62 58 63 63 65 73 75 83 83 96 93 100 83
11 9 6 3 4 4 6 9 11 10 9 10 10 8 9 9 11 13 13 15 16 17 21 30 45 46 40 24 22 35 40 37 37 31 30 36 37 37 41 41 49 48 43 39 54 92 98
13 13 7 5 3 4 4 6 10 12 13 13 12 13 12 11 9 9 8 9 11 22 28 32 33 19 16 17 24 34 36 31 28 31 32 37 35 32 31 30 30 19 25 26 35 48 64
11 13 14 6 4 4 4 4 7 11 13 14 15 16 15 16 16 14 12 10 8 10 21 25 20 12 11 16 23 26 34 35 26 18 17 18 14 12 11 9 7 7 7 8 8 9 9
6 10 14 14 9 4 3 4 4 7 12 14 15 16 17 17 17 17 18 18 15 13 9 8 14 10 13 14 22 23 18 20 12 7 8 7 6 7 7 9 10 10 12 14 15 15 18
8 6 9 12 13 7 5 3 4 4 6 12 15 16 16 18 18 18 18 18 18 19 20 18 14 10 8 11 16 13 6 7 7 8 8 9 10 10 10 11 11 12 12 14 15 16 17
14 8 6 8 11 12 8 6 4 4 4 6 11 14 15 16 17 18 19 19 18 18 18 18 19 20 20 17 14 13 13 13 13 13 13 12 12 13 13 13 13 14 13 12 12 12 12
27 19 10 6 6 10 10 10 8 5 3 4 5 8 12 14 14 16 18 19 20 19 18 20 20 20 19 19 20 21 20 20 19 18 17 16 15 14 14 14 14 15 14 14 13 12 11
34 30 26 15 6 5 9 11 11 9 7 4 4 4 6 11 13 14 16 17 19 20 21 22 23 23 23 22 22 22 22 22 22 22 21 19 18 17 16 15 14 14 14 13 14 13 12
35 34 31 27 18 8 5 6 12 13 11 7 7 4 4 5 8 12 12 14 16 18 21 22 24 26 28 29 30 30 29 28 28 28 26 25 22 21 20 19 18 14 13 12 13 13 13
49 39 34 31 30 20 12 6 6 11 16 17 13 10 9 5 4 6 8 10 12 14 16 19 22 25 28 30 31 34 36 38 38 37 36 32 29 28 24 21 22 19 17 15 14 13 12
53 49 38 35 32 30 23 14 8 5 10 15 16 16 16 14 11 7 5 6 8 10 11 14 17 19 21 22 23 24 26 31 34 36 37 38 38 32 31 30 27 25 25 26 22 19 17
Wind_Speed
48 42 43 47 42 35 34 35 34 28 27 40 40 40 45 47 46 42 46 47 48 48 48 46 43 39 35 35 36 38 37 36 39 39 39 41 41 41 42 44 46 48 47 48 49 51 54
44 48 44 43 39 36 31 28 29 24 26 20 26 35 32 36 40 40 39 38 39 41 43 42 39 36 32 32 31 35 35 35 36 35 36 36 36 37 42 43 43 45 45 49 51 53 54
47 46 37 29 29 35 35 29 23 24 23 23 25 28 28 25 32 31 32 33 32 32 34 32 31 30 29 30 33 33 31 31 34 34 36 37 37 36 37 39 39 39 40 45 49 53 53
57 41 33 33 35 34 23 17 16 13 11 18 22 19 21 26 22 25 23 28 28 24 27 28 27 28 27 26 26 24 25 27 27 28 28 31 31 32 32 34 36 41 44 43 43 49 53
56 43 34 29 24 17 5 3 6 6 13 9 12 14 25 29 22 22 24 24 29 38 34 26 23 20 20 20 19 19 18 21 21 22 23 25 26 32 34 36 40 44 46 46 46 46 53
48 42 38 35 27 23 14 7 11 9 11 6 7 13 17 27 28 22 23 25 27 26 22 14 15 16 13 12 13 15 12 14 19 22 25 29 33 35 36 39 40 38 40 39 41 37 50
68 40 39 37 31 25 22 7 12 13 4 5 4 5 16 31 26 19 22 24 23 17 14 12 10 8 6 7 4 6 11 14 17 21 27 30 31 33 34 25 19 12 13 15 19 16 16
82 69 38 33 35 26 21 18 8 9 9 2 3 7 21 40 38 31 28 23 21 15 12 9 8 5 6 6 2 9 11 16 22 26 26 26 21 8 3 3 5 2 6 3 3 3 8
79 81 69 48 31 23 22 23 20 20 18 14 23 25 30 35 33 31 28 23 18 17 15 12 8 9 11 6 3 6 8 8 10 8 2 5 12 14 13 10 9 12 13 14 13 6 16
74 76 77 71 66 34 16 19 22 27 27 36 28 30 36 32 32 30 28 25 21 18 16 13 14 12 9 4 8 11 14 16 19 17 16 15 14 17 15 12 11 16 15 14 15 12 11
72 72 71 73 71 68 61 41 38 45 43 38 37 32 33 33 32 28 25 23 19 17 16 15 15 13 11 14 17 17 15 16 16 15 15 15 13 11 13 14 22 23 22 18 14 10 10
77 71 69 68 66 66 66 63 56 51 50 47 42 37 31 31 28 26 22 22 20 21 19 16 15 15 16 19 17 14 11 10 7 9 9 5 7 11 12 17 21 21 20 14 18 16 14
79 79 72 64 63 62 58 55 53 51 51 47 40 33 27 26 25 22 21 18 18 20 21 16 14 15 16 17 16 6 7 7 8 7 6 5 8 7 11 12 15 11 14 17 15 16 13
72 74 75 73 67 61 55 53 46 44 39 37 34 30 32 35 33 30 28 23 19 18 17 15 15 15 15 18 13 4 4 8 10 7 7 9 10 7 12 14 9 11 15 13 10 7 6
63 66 68 70 68 68 64 58 52 45 43 40 41 39 38 36 33 30 27 24 25 23 20 18 16 15 15 15 6 4 4 12 9 8 8 7 8 9 11 9 6 6 7 5 8 8 10
56 55 59 61 63 62 60 58 54 52 46 42 39 38 36 34 31 29 26 22 25 28 26 22 18 18 17 15 13 10 9 12 14 11 10 11 12 13 17 10 10 16 8 10 12 14 16
51 50 51 54 55 56 56 55 54 52 49 43 38 32 28 26 24 26 25 26 23 23 24 24 22 19 17 13 11 7 13 18 23 24 18 18 16 17 20 21 20 24 20 25 15 16 13
42 45 44 46 48 49 50 50 50 50 50 46 44 38 32 29 25 25 24 25 25 22 23 23 21 19 15 14 13 13 24 30 26 19 15 14 13 15 16 16 18 20 26 23 18 24 19
35 35 38 37 40 42 43 45 46 45 45 47 46 43 41 35 32 27 26 28 27 25 26 25 22 22 18 19 20 23 27 23 16 12 9 11 11 13 14 15 19 15 18 19 17 16 21
26 30 29 31 32 35 37 38 40 41 41 41 42 44 42 41 40 37 34 31 28 28 26 23 23 27 25 24 24 23 17 15 9 6 9 13 15 17 18 18 15 18 18 21 21 22 18
20 20 23 23 25 27 29 32 33 36 36 36 36 37 40 39 39 39 39 40 37 29 26 25 28 30 29 27 22 21 15 10 5 10 10 12 15 16 19 19 21 24 27 29 28 28 27
20 16 17 17 18 20 21 25 27 28 30 31 31 30 32 34 36 36 35 35 36 35 35 32 26 23 15 19 23 16 11 6 6 12 17 21 23 24 25 23 25 26 25 24 25 24 23
20 20 14 15 13 12 17 18 20 21 22 24 24 25 27 28 29 31 31 31 31 30 28 28 28 26 24 22 19 15 17 19 20 21 22 21 20 20 19 19 19 20 19 19 19 19 18
16 18 17 13 13 10 9 11 12 14 15 17 19 20 21 22 23 24 25 26 26 25 24 22 21 20 18 17 16 15 14 14 14 15 15 15 15 15 15 15 14 13 12 15 16 15 15
16 15 17 16 14 13 9 6 6 9 9 9 9 11 14 15 16 18 18 19 20 20 20 19 18 16 14 13 12 12 11 11 10 9 9 9 10 9 10 10 10 9 9 9 12 13 14
21 17 17 16 14 15 15 11 8 6 6 7 8 6 7 8 10 11 12 12 13 13 13 14 14 13 13 13 12 11 11 11 11 10 10 10 10 9 9 8 9 9 9 7 7 8 8
26 24 18 17 16 15 16 17 14 11 8 9 8 7 5 4 3 5 6 7 8 8 7 7 7 8 8 8 9 10 10 10 10 11 12 12 12 12 11 12 11 11 10 9 8 7 5
23 27 25 20 17 17 17 14 15 18 13 12 13 12 10 9 8 6 4 3 2 3 4 5 5 4 3 4 5 5 6 7 8 9 10 11 12 13 13 14 14 14 13 12 12 12 12
23 26 28 25 23 21 21 19 17 15 20 19 18 18 17 15 15 14 13 10 9 7 6 5 5 6 7 7 5 6 7 7 8 9 10 11 12 13 14 15 15 15 16 17 17 15 15
Wind_Direction
317 319 310 306 300 292 276 271 277 282 277 283 265 248 238 241 240 243 245 247 247 250 252 254 255 255 254 258 264 270 273 272 273 274 275 274 273 267 269 271 272 272 271 266 265 262 258
325 319 309 307 299 296 291 280 278 256 253 263 270 261 244 233 234 234 237 240 246 247 250 250 250 249 250 260 266 271 272 272 273 276 278 278 278 275 276 274 270 268 267 268 265 259 254
341 327 322 312 305 298 294 291 279 259 263 249 254 258 249 233 228 222 225 231 239 242 239 234 235 240 247 261 265 268 269 275 277 279 282 276 280 280 276 270 273 278 275 270 264 258 253
346 343 328 320 313 306 299 282 267 261 204 235 234 253 232 220 222 212 216 222 218 201 219 224 230 239 250 257 263 269 276 285 287 280 273 276 276 276 279 282 286 285 276 268 267 263 258
356 359 5 7 5 16 352 317 138 150 185 197 217 243 208 191 204 199 198 204 208 201 218 222 229 237 248 255 268 281 286 277 273 277 275 272 271 274 279 283 284 284 284 279 270 268 260
13 20 19 19 24 31 41 101 103 123 170 145 224 252 200 171 176 190 202 207 205 203 202 205 220 235 245 267 285 285 273 276 280 281 276 267 268 274 282 290 291 289 286 284 274 258 261
30 30 27 29 31 43 56 81 60 46 116 167 294 347 169 149 149 150 181 183 174 167 181 195 208 232 233 267 256 258 289 288 286 280 270 268 275 288 293 292 303 289 274 259 276 277 284
35 38 27 26 26 47 58 73 41 50 83 151 220 106 150 140 135 156 139 141 149 149 164 182 175 194 238 169 217 309 302 295 278 274 279 284 285 264 272 25 183 63 78 70 309 311 355
37 41 42 38 38 46 65 73 73 76 67 117 117 96 116 116 124 130 139 145 143 145 148 156 162 149 147 159 307 1 340 335 346 2 337 107 105 111 93 94 97 72 67 52 47 37 103
37 43 46 51 53 49 74 84 74 73 85 107 103 102 103 112 122 129 132 132 138 143 154 152 140 140 151 135 103 83 61 61 57 71 89 95 102 102 84 65 48 25 18 39 63 62 113
39 43 48 50 55 63 69 90 92 94 87 88 99 95 100 105 108 119 126 129 139 150 137 137 140 136 132 133 118 88 83 76 81 84 92 94 80 54 22 4 359 354 1 15 5 325 30
41 43 48 53 56 61 71 77 84 88 92 93 99 101 106 113 117 123 127 134 138 133 135 131 125 122 144 143 126 106 76 73 63 63 80 75 26 11 6 17 23 19 7 6 8 16 32
36 42 48 50 54 60 61 67 76 83 88 91 96 101 99 104 111 107 120 125 124 126 119 118 123 130 146 146 139 131 65 54 56 60 51 38 21 37 26 30 29 22 17 1 17 36 22
37 39 45 48 53 57 59 65 73 77 81 82 84 91 93 94 98 100 101 104 105 103 107 111 119 124 137 144 165 130 44 75 60 54 33 29 49 55 35 29 23 35 56 42 37 47 45
35 42 43 49 50 52 56 62 68 73 73 80 91 93 93 92 89 90 90 94 88 88 91 96 106 117 144 140 144 119 106 91 79 69 63 56 54 45 31 45 76 67 3 9 42 41 62
37 39 45 46 51 54 55 59 64 70 78 85 89 89 91 90 85 80 74 77 91 87 85 88 97 102 104 118 111 108 108 94 92 98 91 80 59 77 81 82 64 54 70 90 96 85 69
31 40 43 45 48 52 56 59 62 64 67 74 77 80 80 80 81 78 70 64 80 85 82 82 85 89 100 109 108 109 105 112 117 120 111 97 80 74 72 83 76 53 83 70 74 97 91
40 34 42 44 44 47 50 54 59 64 66 68 71 73 64 53 48 50 48 55 66 79 80 78 86 88 93 99 106 110 116 122 125 119 109 94 84 79 74 71 74 69 75 87 61 85 102
19 40 37 43 44 44 45 50 53 56 61 65 65 70 72 69 62 50 45 52 61 73 82 90 91 94 95 99 104 115 133 123 115 101 95 79 67 69 73 68 63 65 71 71 81 70 94
16 19 30 38 42 44 45 46 51 52 54 57 64 67 68 69 73 74 72 69 77 91 96 95 98 105 105 105 116 127 128 111 98 83 57 56 63 74 72 61 57 60 67 86 90 92 91
9 14 21 27 35 43 46 48 45 49 53 54 56 61 68 70 68 70 73 77 81 89 102 104 109 114 117 123 129 139 143 155 87 45 42 47 53 59 67 74 79 81 82 84 90 94 96
360 5 10 20 27 32 40 43 47 46 47 53 53 56 61 68 72 71 71 72 75 79 83 89 106 116 111 128 141 138 135 92 60 82 82 78 81 82 86 85 77 72 72 75 76 79 83
1 358 352 353 10 25 33 36 40 46 45 46 57 57 57 60 66 72 74 73 75 76 76 78 83 90 96 108 125 124 107 99 95 92 87 85 82 78 76 70 65 63 59 60 61 66 70
2 355 349 333 336 354 20 29 29 38 46 44 42 49 58 60 62 63 69 73 75 76 78 78 76 77 77 79 83 82 77 75 73 75 73 72 70 69 68 66 64 66 68 68 65 66 67
358 2 354 348 322 317 319 336 358 15 27 38 45 46 50 55 57 60 62 65 70 73 74 73 74 74 73 71 66 63 60 56 56 53 55 55 52 45 48 52 54 56 60 60 62 61 66
325 335 347 350 344 314 299 294 294 300 331 348 358 16 32 37 50 59 59 56 61 66 74 77 74 71 68 63 56 51 46 40 37 33 28 26 21 13 9 10 14 15 23 40 44 37 37
309 319 326 338 352 343 314 298 290 283 275 275 296 313 324 329 2 34 42 47 44 36 36 50 65 71 68 61 55 43 34 30 22 16 10 7 2 359 355 353 350 356 351 350 350 352 360
303 304 311 317 327 337 333 321 299 286 281 278 272 267 275 287 287 286 292 317 350 9 1 345 355 15 39 43 32 31 31 21 14 7 360 355 349 346 343 341 338 340 337 334 333 324 317
298 299 299 305 312 315 321 326 331 299 283 278 273 282 271 268 277 284 286 276 269 269 274 287 300 300 302 304 315 322 323 325 333 336 340 339 338 329 329 325 323 324 325 325 326 326 320